Weather History for KESF - February, 2013

Change the Weather History Date:

Thursday, February 28, 2013

  Actual Average Record
Temperature  
Mean Temperature 46 °F -  
Max Temperature 57 °F 67 °F 80 °F (1972)
Min Temperature 36 °F 42 °F 19 °F (2002)
Degree Days  
Heating Degree Days 18    
Moisture  
Dew Point 28 °F    
Average Humidity 51    
Maximum Humidity 82    
Minimum Humidity 27    
Precipitation  
Precipitation 0.00 in - - ()
Sea Level Pressure  
Sea Level Pressure 30.14 in    
Wind  
Wind Speed 5 mph (WNW)    
Max Wind Speed 10 mph    
Max Gust Speed 17 mph    
Visibility 10 miles    
Events      
Averages and records for this station are not official NWS values.
T = Trace of Precipitation, MM = Missing Value Source: NWS Daily Summary

Daily Weather History Graph

Daily Weather History Graph

Search for Another Location

Airport or City:

Trip Planner

Search our weather history database for the weather conditions in past years. The results will help you decide how hot, cold, wet, or windy it might be!

Date:

Astronomy

Feb. 28, 2013 Rise Set
Actual Time 6:36 AM CST 6:06 PM CST
Civil Twilight 6:12 AM CST 6:31 PM CST
Nautical Twilight 5:44 AM CST 6:59 PM CST
Astronomical Twilight 5:16 AM CST 7:27 PM CST
Moon 9:17 PM CST (2/28) 8:01 AM CST (2/28)
Length of Visible Light 12h 18m
Length of Day
11h 29m
Waning Gibbous, 90% of the Moon is Illuminated
Feb 28
Waning Gibbous
Mar 4
Last Quarter
Mar 11
New
Mar 19
First Quarter
Mar 27
Full

Hourly Weather History & Observations

Time (CST) Temp. Windchill Dew Point Humidity Pressure Visibility Wind Dir Wind Speed Gust Speed Precip Events Conditions
12:53 AM 45.0 °F 43.5 °F 28.9 °F 53% 30.09 in 10.0 mi NW 3.5 mph - N/A   Clear
1:53 AM 42.1 °F 39.2 °F 30.0 °F 62% 30.09 in 10.0 mi WNW 4.6 mph - N/A   Clear
2:53 AM 45.0 °F 41.8 °F 28.9 °F 53% 30.11 in 10.0 mi WNW 5.8 mph - N/A   Clear
3:53 AM 43.0 °F 41.3 °F 28.0 °F 56% 30.12 in 10.0 mi Variable 3.5 mph - N/A   Clear
4:53 AM 41.0 °F 38.0 °F 28.0 °F 60% 30.13 in 10.0 mi WNW 4.6 mph - N/A   Clear
5:53 AM 39.9 °F 36.7 °F 28.0 °F 63% 30.15 in 10.0 mi NNW 4.6 mph - N/A   Clear
6:53 AM 37.0 °F - 28.0 °F 70% 30.16 in 10.0 mi Calm Calm - N/A   Clear
7:53 AM 39.2 °F 37.0 °F 28.4 °F 65% 30.18 in 10.0 mi Variable 3.5 mph - N/A   Clear
8:53 AM 44.1 °F 39.0 °F 28.0 °F 53% 30.21 in 10.0 mi WNW 9.2 mph - N/A   Clear
9:53 AM 46.0 °F 41.9 °F 28.0 °F 50% 30.21 in 10.0 mi NNW 8.1 mph - N/A   Clear
10:53 AM 52.0 °F - 26.1 °F 37% 30.20 in 10.0 mi NW 10.4 mph 16.1 mph N/A   Clear
11:53 AM 54.0 °F - 24.1 °F 31% 30.18 in 10.0 mi North 8.1 mph 17.3 mph N/A   Clear
12:53 PM 54.0 °F - 25.0 °F 33% 30.16 in 10.0 mi WNW 8.1 mph - N/A   Clear
1:53 PM 53.1 °F - 24.1 °F 32% 30.13 in 10.0 mi NW 8.1 mph - N/A   Clear
2:53 PM 57.9 °F - 24.1 °F 27% 30.11 in 10.0 mi Variable 6.9 mph - N/A   Clear
3:53 PM 57.0 °F - 24.1 °F 28% 30.09 in 10.0 mi WNW 8.1 mph - N/A   Clear
4:53 PM 57.0 °F - 24.1 °F 28% 30.08 in 10.0 mi WNW 9.2 mph - N/A   Clear
5:53 PM 53.6 °F - 26.6 °F 35% 30.10 in 10.0 mi WNW 5.8 mph - N/A   Clear
6:53 PM 51.1 °F - 28.0 °F 41% 30.11 in 10.0 mi NW 4.6 mph - N/A   Clear
7:53 PM 48.0 °F - 30.0 °F 50% 30.13 in 10.0 mi WNW 3.5 mph - N/A   Clear
8:53 PM 44.1 °F - 33.1 °F 65% 30.14 in 10.0 mi Calm Calm - N/A   Clear
9:53 PM 39.9 °F 37.8 °F 33.1 °F 77% 30.15 in 10.0 mi West 3.5 mph - N/A   Clear
10:53 PM 36.0 °F 33.3 °F 30.9 °F 82% 30.15 in 10.0 mi West 3.5 mph - N/A   Clear
11:53 PM 36.0 °F 32.1 °F 30.9 °F 82% 30.15 in 10.0 mi West 4.6 mph - N/A   Clear